Wind_Speed
29 30 31 31 31 32 33 34 33 32 32 31 30 29 28 28 27 28 27 28 28 28 28 27 26 27 28 28 28 29 29 28 28 29 29 29 29 30 30 29 30 30 31
30 31 32 32 33 33 34 36 36 35 33 32 31 31 30 30 30 30 30 29 29 28 29 28 27 28 30 30 29 30 30 30 30 30 30 31 30 30 30 30 31 32 32
30 30 32 33 33 34 35 36 37 36 34 33 32 32 32 32 32 31 31 31 30 30 30 29 30 30 31 31 31 32 32 32 31 32 32 32 32 32 32 33 33 33 33
28 30 31 32 33 34 35 36 36 35 35 34 34 34 34 34 34 33 33 33 32 31 31 30 30 31 31 32 34 34 34 34 33 34 34 34 33 33 33 34 35 35 35
26 28 30 31 32 33 34 35 35 36 35 35 35 35 35 35 35 35 35 34 33 33 32 31 31 32 32 32 32 33 34 34 35 35 35 36 36 35 35 35 36 37 37
25 27 28 29 31 32 32 32 33 34 35 35 36 36 35 36 36 36 36 34 34 33 33 33 33 33 33 32 32 33 34 35 36 36 37 37 37 37 37 37 37 37 38
24 26 26 28 29 30 31 32 33 34 35 35 36 36 35 36 36 36 35 35 35 34 33 33 33 33 33 33 34 33 34 34 35 36 37 37 37 38 38 39 40 40 40
24 25 26 27 28 29 30 31 32 33 34 35 35 35 35 36 36 37 36 35 35 35 34 33 33 33 34 35 35 34 34 35 36 36 36 36 36 37 39 40 41 42 42
23 24 26 27 28 28 29 30 31 32 33 34 35 35 35 36 36 37 36 35 35 35 34 33 33 33 33 33 33 33 33 33 34 35 35 35 36 37 38 39 41 42 42
21 23 25 26 27 28 28 29 30 32 32 33 34 35 35 36 36 35 35 35 35 35 34 34 34 34 33 33 33 33 33 33 34 34 34 35 36 37 38 39 41 42 42
23 24 26 27 28 29 30 30 31 32 32 33 34 35 35 35 35 35 34 34 34 34 34 34 34 34 33 33 32 32 31 32 33 33 34 35 36 38 38 38 39 40 40
25 26 26 27 28 30 31 31 32 33 33 34 34 34 35 34 34 34 34 34 34 34 34 34 34 33 33 33 32 32 32 32 32 33 33 35 36 36 36 37 37 38 38
26 27 28 28 28 30 31 31 31 31 31 32 32 32 33 33 33 33 33 33 33 33 33 32 32 31 30 30 29 30 29 31 31 31 32 33 34 35 35 36 36 37 37
28 28 29 29 28 29 29 29 29 29 30 29 29 29 30 31 31 31 31 32 32 31 31 30 30 29 29 29 29 29 29 29 30 31 32 33 33 34 34 35 35 35 34
27 28 28 28 27 27 26 26 27 27 26 26 26 26 26 27 28 28 28 28 28 27 26 26 26 26 26 27 28 28 28 29 29 30 30 31 32 33 32 32 32 32 32
27 27 27 26 25 25 24 24 24 24 23 23 23 23 23 22 23 23 24 23 23 23 22 22 23 23 24 24 24 25 26 26 26 27 28 28 28 29 29 29 30 30 30
26 26 25 24 23 23 23 22 21 21 21 21 20 20 20 21 21 20 20 20 20 20 20 21 21 20 21 21 22 23 23 23 23 24 24 25 26 26 27 27 27 27 27
25 24 23 22 21 20 20 20 20 19 18 17 18 18 17 17 17 18 18 18 18 18 19 19 19 20 20 20 20 20 21 22 22 22 22 23 23 23 24 24 24 24 24
22 22 21 20 19 18 18 18 18 17 16 15 16 16 16 16 15 15 15 15 16 16 17 17 17 17 18 18 18 19 19 20 20 20 20 20 21 21 21 21 21 21 21
19 19 18 17 16 15 15 15 15 14 13 13 14 14 14 13 12 12 13 13 13 13 14 15 15 15 16 16 17 17 17 18 18 18 19 19 20 20 19 19 19 19 19
17 16 15 14 13 13 12 11 11 11 11 11 11 11 11 11 11 11 12 11 11 11 12 12 13 14 14 15 15 15 16 16 16 17 17 18 18 17 17 17 17 17 16
15 14 12 11 10 10 10 9 9 8 8 8 8 8 8 9 9 9 9 9 10 10 10 11 12 12 13 13 14 14 14 14 14 15 15 15 15 15 15 15 14 13 13
13 11 9 9 8 8 9 9 8 7 7 7 7 7 7 7 8 8 8 9 9 9 10 10 11 12 12 13 13 13 13 13 13 13 13 13 13 13 13 12 11 10 10
11 9 8 8 8 7 7 7 6 6 5 6 6 6 6 7 7 8 8 8 8 9 9 10 10 11 11 12 12 11 11 11 11 12 12 12 12 12 11 10 9 9 8
9 9 8 7 7 6 7 7 5 5 5 5 5 6 6 6 7 7 7 7 8 8 8 8 9 9 10 10 10 10 10 10 10 10 11 11 10 10 9 9 8 7 7
9 8 7 6 6 6 5 5 5 5 5 5 5 5 5 5 5 6 6 6 6 6 7 7 8 8 8 9 8 8 8 8 9 9 10 9 8 8 8 7 7 6 5
Wind_Direction
253 253 254 255 256 257 260 262 262 264 263 268 271 274 276 277 278 279 280 281 281 281 280 277 270 266 264 264 263 263 264 265 264 264 265 267 269 269 269 271 272 273 276
256 255 255 256 256 257 260 262 263 265 266 268 272 274 275 277 278 279 279 280 281 282 282 278 273 269 266 267 267 266 265 266 266 265 265 266 268 268 269 271 272 274 276
257 256 254 255 256 257 259 260 262 265 265 268 270 272 273 274 276 277 278 279 279 280 280 279 275 272 267 267 267 267 266 268 267 266 266 265 266 267 269 271 273 275 277
259 258 256 257 258 259 259 261 263 264 266 268 268 271 274 275 275 276 276 276 277 276 278 277 274 271 269 270 269 267 267 267 267 268 268 267 267 267 268 271 272 274 277
261 259 258 260 261 261 261 263 264 265 266 268 270 271 274 274 275 275 276 277 276 275 275 274 274 271 269 270 268 265 265 265 267 268 269 269 268 268 269 269 272 274 277
264 262 262 263 263 263 264 264 264 264 266 268 270 271 273 273 275 276 277 276 276 276 275 272 274 274 271 269 268 267 264 265 267 267 269 270 269 270 271 271 272 274 276
267 265 265 266 265 265 265 264 264 265 266 267 268 269 271 273 273 275 276 275 274 275 273 273 273 272 272 270 269 269 267 267 267 269 271 270 270 270 271 272 275 276 277
269 266 266 268 267 267 266 265 264 265 265 266 267 269 269 271 272 274 275 274 274 274 273 274 272 271 271 269 268 269 269 268 268 269 270 270 270 271 273 275 276 278 279
275 269 269 270 270 271 269 267 265 264 265 266 267 268 268 270 272 273 273 272 272 272 273 273 273 271 270 270 269 269 268 268 268 270 271 271 272 273 276 277 277 279 280
279 274 272 272 271 270 269 269 267 266 266 268 269 269 269 270 272 272 272 271 271 271 271 271 272 271 271 270 270 270 270 269 269 269 271 272 274 276 279 280 279 279 280
284 281 278 276 274 272 270 270 270 269 268 269 270 271 271 273 272 272 272 271 272 272 271 272 271 271 270 270 270 272 271 271 271 273 275 277 278 278 281 281 280 281 281
287 285 283 280 277 276 274 274 273 272 271 271 272 272 272 272 272 271 270 272 272 271 271 272 270 268 269 270 270 271 272 273 274 276 277 279 280 280 281 281 282 282 282
290 288 287 284 283 281 278 277 276 275 274 273 272 273 272 271 270 270 269 271 270 270 269 269 267 267 269 269 270 272 274 275 275 276 279 281 281 282 282 283 284 284 284
293 290 290 288 286 284 282 280 279 278 276 275 274 273 273 271 270 268 269 269 269 268 266 267 266 267 267 269 271 273 275 276 277 279 281 281 281 282 282 284 285 286 286
297 294 291 289 289 287 284 282 280 280 278 275 275 275 273 272 271 269 269 268 266 264 266 269 267 268 269 271 271 273 275 278 280 281 281 281 283 284 286 286 287 287 288
298 295 293 290 289 288 285 283 283 282 280 277 276 276 273 273 272 268 267 267 266 267 268 268 269 269 271 275 277 277 278 280 281 282 284 285 285 286 289 288 287 287 289
299 297 295 294 291 288 287 287 286 285 283 280 279 277 273 269 270 270 268 266 269 267 267 270 271 276 279 280 279 279 280 282 284 286 288 287 288 290 290 291 290 289 290
300 298 296 294 292 289 290 289 287 287 284 282 280 278 278 276 275 272 273 270 268 267 270 274 274 278 281 281 282 284 286 287 287 287 289 290 291 291 291 293 293 292 291
302 301 299 297 294 293 291 290 287 287 285 284 285 281 278 275 276 273 272 270 266 266 270 274 277 280 282 283 283 285 286 287 287 289 291 293 293 293 293 294 296 296 295
306 304 301 299 296 296 295 292 290 288 285 285 286 285 282 277 276 274 273 273 270 271 273 276 278 280 283 286 286 285 286 288 289 290 292 293 294 295 296 298 298 298 298
309 306 304 301 299 301 298 298 296 293 289 290 288 285 284 282 283 281 280 279 279 281 282 282 283 283 284 285 288 289 289 288 289 290 292 295 298 300 301 302 301 300 300
315 310 307 305 304 303 298 300 300 301 298 296 294 289 288 290 290 293 294 294 291 288 290 292 291 290 291 293 294 293 292 290 293 296 298 301 304 306 306 305 303 302 302
322 318 315 312 308 305 307 307 305 304 300 297 297 295 294 299 302 304 303 304 300 298 298 297 298 298 297 297 297 296 296 296 298 302 305 307 309 311 310 308 306 303 301
328 326 323 320 318 317 318 319 316 310 305 305 308 307 304 303 302 304 304 309 310 309 308 305 303 302 300 300 300 300 299 299 301 303 305 309 312 313 313 312 310 306 300
335 335 331 328 324 320 322 325 325 322 321 320 314 316 318 313 310 309 306 305 309 312 311 310 308 307 307 306 303 301 300 300 301 304 307 309 311 314 315 313 310 308 304
345 345 343 342 342 338 337 337 337 338 338 335 333 331 332 334 332 329 325 319 319 322 322 322 322 321 319 317 313 309 307 308 308 308 309 310 312 312 313 312 309 305 299
Height
5820 5820 5820 5820 5822 5823 5824 5825 5825 5826 5826 5827 5827 5828 5829 5830 5829 5829 5829 5830 5830 5830 5830 5830 5831 5832 5833 5833 5835 5836 5838 5838 5839 5840 5841 5841 5842 5842 5843 5843 5843 5843 5843
5813 5814 5814 5815 5817 5818 5819 5819 5820 5820 5821 5821 5822 5822 5823 5824 5824 5824 5824 5824 5824 5824 5824 5824 5824 5826 5827 5828 5829 5830 5832 5832 5832 5833 5834 5835 5836 5836 5836 5836 5837 5837 5837
5807 5807 5808 5809 5810 5811 5812 5813 5814 5814 5814 5815 5815 5816 5817 5817 5817 5817 5817 5817 5818 5818 5818 5817 5818 5819 5820 5821 5822 5823 5824 5825 5826 5826 5827 5827 5828 5829 5829 5829 5829 5829 5829
5801 5801 5802 5803 5804 5805 5805 5806 5806 5807 5807 5807 5808 5810 5810 5810 5810 5810 5809 5809 5810 5811 5810 5811 5811 5811 5813 5814 5815 5816 5817 5818 5818 5818 5819 5820 5820 5821 5821 5822 5821 5821 5821
5795 5795 5796 5796 5797 5798 5799 5799 5800 5800 5800 5800 5801 5802 5802 5802 5802 5802 5802 5802 5802 5803 5803 5803 5804 5805 5805 5806 5807 5808 5809 5810 5810 5810 5811 5811 5812 5812 5813 5814 5814 5813 5813
5790 5790 5790 5790 5791 5791 5792 5792 5793 5793 5793 5793 5794 5794 5795 5795 5795 5795 5795 5795 5795 5795 5796 5796 5797 5797 5797 5798 5799 5800 5800 5801 5801 5802 5802 5803 5803 5804 5804 5805 5805 5805 5805
5784 5784 5785 5784 5784 5785 5785 5786 5786 5786 5786 5786 5787 5787 5787 5787 5788 5788 5788 5787 5787 5788 5788 5788 5789 5789 5789 5790 5791 5791 5792 5793 5793 5794 5794 5794 5794 5795 5795 5795 5795 5796 5796
5779 5779 5779 5778 5778 5778 5778 5778 5778 5779 5779 5779 5779 5779 5780 5780 5780 5780 5780 5780 5780 5780 5780 5780 5780 5781 5781 5782 5783 5783 5783 5784 5785 5785 5785 5785 5785 5785 5786 5785 5785 5785 5785
5774 5773 5773 5772 5772 5771 5771 5771 5771 5771 5771 5771 5771 5771 5772 5772 5772 5772 5772 5772 5772 5772 5772 5772 5772 5772 5773 5774 5774 5775 5775 5776 5776 5776 5776 5776 5777 5776 5776 5775 5775 5775 5775
5769 5768 5767 5766 5766 5765 5764 5763 5763 5763 5763 5763 5763 5763 5763 5763 5763 5763 5763 5764 5764 5764 5764 5764 5765 5765 5765 5766 5766 5767 5767 5767 5768 5768 5768 5768 5768 5767 5767 5766 5765 5764 5764
5764 5762 5761 5760 5759 5758 5757 5756 5756 5755 5755 5755 5755 5755 5754 5754 5754 5754 5754 5754 5755 5756 5756 5756 5756 5757 5757 5758 5758 5759 5759 5759 5759 5759 5759 5759 5759 5758 5758 5757 5756 5754 5753
5758 5757 5755 5754 5752 5750 5749 5748 5748 5747 5747 5746 5746 5746 5746 5746 5746 5746 5746 5746 5747 5747 5748 5748 5748 5748 5749 5749 5750 5750 5750 5751 5751 5751 5751 5750 5750 5749 5748 5747 5746 5744 5743
5753 5751 5749 5747 5745 5743 5741 5740 5739 5739 5738 5738 5738 5737 5737 5737 5738 5738 5738 5738 5739 5739 5739 5740 5740 5740 5741 5741 5742 5742 5742 5742 5743 5742 5742 5741 5741 5740 5739 5738 5736 5735 5734
5747 5744 5742 5739 5737 5735 5734 5732 5732 5731 5730 5730 5729 5729 5729 5729 5729 5730 5730 5730 5731 5731 5732 5732 5732 5733 5733 5734 5734 5735 5735 5734 5734 5734 5734 5733 5732 5731 5730 5729 5727 5726 5725
5740 5738 5735 5733 5730 5728 5726 5725 5725 5724 5723 5723 5722 5722 5722 5722 5722 5722 5723 5723 5723 5724 5725 5725 5725 5726 5726 5726 5727 5727 5727 5727 5727 5726 5726 5725 5723 5722 5721 5720 5718 5717 5716
5734 5731 5728 5725 5723 5722 5720 5719 5718 5717 5716 5716 5716 5716 5715 5715 5715 5716 5716 5716 5717 5718 5718 5718 5719 5719 5719 5719 5719 5720 5720 5720 5719 5719 5718 5717 5716 5714 5713 5712 5710 5709 5708
5728 5725 5722 5719 5717 5716 5715 5713 5712 5711 5711 5710 5710 5710 5710 5710 5710 5710 5710 5711 5711 5712 5713 5713 5713 5713 5713 5713 5713 5713 5713 5713 5712 5712 5711 5710 5709 5707 5706 5704 5703 5701 5700
5722 5719 5716 5714 5712 5711 5710 5709 5708 5707 5706 5706 5706 5705 5705 5705 5705 5705 5705 5706 5706 5707 5707 5708 5708 5707 5708 5708 5708 5707 5707 5707 5706 5706 5704 5703 5702 5700 5699 5698 5696 5694 5693
5716 5714 5711 5709 5708 5706 5705 5704 5703 5703 5702 5702 5701 5701 5701 5701 5701 5701 5701 5701 5702 5702 5702 5703 5703 5703 5703 5703 5702 5702 5702 5701 5700 5699 5698 5697 5696 5695 5693 5692 5690 5689 5687
5711 5709 5707 5705 5703 5702 5701 5700 5700 5699 5699 5698 5698 5698 5698 5698 5698 5698 5698 5698 5698 5698 5699 5699 5698 5698 5698 5698 5697 5697 5696 5696 5695 5694 5693 5692 5691 5690 5688 5687 5685 5684 5682
5707 5705 5703 5701 5700 5699 5698 5697 5697 5696 5696 5696 5695 5695 5695 5695 5695 5695 5695 5695 5695 5695 5695 5695 5694 5694 5694 5693 5693 5692 5692 5691 5690 5690 5689 5687 5686 5685 5683 5682 5681 5679 5678
5704 5702 5700 5699 5698 5697 5696 5695 5694 5694 5694 5693 5693 5693 5693 5693 5692 5692 5692 5692 5692 5691 5691 5691 5691 5690 5690 5689 5689 5688 5687 5687 5686 5685 5684 5683 5682 5680 5679 5678 5677 5675 5674
5702 5700 5698 5697 5696 5695 5694 5693 5692 5692 5692 5692 5691 5691 5691 5690 5690 5690 5690 5690 5689 5689 5689 5688 5688 5687 5686 5686 5685 5685 5684 5683 5682 5682 5681 5679 5678 5677 5676 5675 5673 5672 5671
5700 5698 5697 5696 5695 5693 5693 5692 5691 5691 5690 5690 5690 5689 5689 5689 5689 5688 5688 5688 5687 5687 5686 5686 5685 5684 5684 5683 5682 5681 5681 5680 5679 5679 5678 5677 5675 5674 5673 5672 5671 5670 5669
5699 5697 5696 5695 5693 5692 5692 5691 5690 5690 5689 5689 5689 5688 5688 5687 5687 5687 5686 5686 5685 5685 5685 5684 5683 5682 5681 5681 5680 5679 5678 5678 5677 5676 5675 5674 5673 5672 5671 5670 5669 5668 5668
5698 5696 5695 5694 5693 5692 5691 5690 5690 5689 5689 5688 5688 5688 5687 5687 5686 5685 5685 5684 5684 5684 5683 5682 5681 5680 5680 5679 5678 5677 5676 5675 5675 5674 5673 5672 5671 5670 5669 5668 5668 5667 5667